| time (UTC) | temp F | wind direction | speed MPH | gust MPH | rain 1hr in | rain 24hr in | rain mn in | humidity % | barometer mb |
| 20260903211532 | 71 | 293 | 2.0 | 9.0 | 0.00 | 0.33 | 0.00 | 57 | 1007.5 |
| 20260903204531 | 69 | 318 | 3.0 | 7.0 | 0.00 | 0.35 | 0.00 | 64 | 1007.6 |
| 20260903203031 | 69 | 265 | 4.0 | 9.0 | 0.00 | 0.36 | 0.00 | 65 | 1007.7 |
| 20260903201530 | 68 | 294 | 3.0 | 9.0 | 0.00 | 0.37 | 0.00 | 71 | 1007.9 |
| 20260903200029 | 67 | 306 | 3.0 | 8.0 | 0.00 | 0.37 | 0.00 | 74 | 1008.1 |
| 20260903193032 | 65 | 285 | 2.0 | 6.0 | 0.00 | 0.38 | 0.00 | 83 | 1008.6 |
| 20260903191530 | 65 | 23 | 2.0 | 5.0 | 0.00 | 0.39 | 0.00 | 85 | 1008.7 |
| 20260903184531 | 64 | 312 | 2.0 | 6.0 | 0.00 | 0.39 | 0.00 | 89 | 1009.1 |
| 20260903183029 | 61 | 325 | 1.0 | 6.0 | 0.00 | 0.39 | 0.00 | 93 | 1009.1 |
| 20260903181606 | 58 | 332 | 1.0 | 4.0 | 0.00 | 0.39 | 0.00 | 93 | 1009.3 |
| 20260903173105 | 54 | 243 | 2.0 | 5.0 | 0.00 | 0.39 | 0.00 | 99 | 1009.4 |
| 20260903171531 | 53 | 109 | 1.0 | 4.0 | 0.00 | 0.39 | 0.00 | 99 | 1009.2 |
| 20260903170030 | 51 | 56 | 1.0 | 3.0 | 0.00 | 0.39 | 0.00 | 98 | 1009.5 |
| 20260903164530 | 51 | 200 | 1.0 | 4.0 | 0.00 | 0.39 | 0.00 | 98 | 1009.5 |
| 20260903163031 | 51 | 216 | 1.0 | 4.0 | 0.00 | 0.39 | 0.00 | 99 | 1009.3 |
| 20260903161531 | 50 | 26 | 2.0 | 4.0 | 0.00 | 0.39 | 0.00 | 99 | 1009.4 |
| 20260903160039 | 50 | 114 | 0.0 | 3.0 | 0.00 | 0.39 | 0.00 | 99 | 1009.5 |
| 20260903154531 | 50 | 218 | 4.0 | 9.0 | 0.00 | 0.39 | 0.00 | 99 | 1009.3 |
| 20260903153031 | 49 | 86 | 1.0 | 6.0 | 0.00 | 0.39 | 0.00 | 99 | 1009.3 |
| 20260903151529 | 49 | 8 | 0.0 | 4.0 | 0.00 | 0.39 | 0.00 | 99 | 1009.5 |
| 20260903144606 | 48 | 133 | 0.0 | 2.0 | 0.00 | 0.39 | 0.00 | 99 | 1009.1 |
| 20260903143031 | 47 | 244 | 0.0 | 4.0 | 0.00 | 0.39 | 0.00 | 98 | 1009.1 |
| 20260903141532 | 47 | 247 | 0.0 | 1.0 | 0.00 | 0.39 | 0.00 | 98 | 1009.0 |
| 20260903140032 | 47 | 246 | 0.0 | 3.0 | 0.00 | 0.39 | 0.00 | 98 | 1008.9 |
| 20260903134540 | 47 | 115 | 1.0 | 5.0 | 0.00 | 0.39 | 0.00 | 98 | 1008.8 |
| 20260903131530 | 46 | 105 | 1.0 | 4.0 | 0.00 | 0.39 | 0.00 | 98 | 1008.6 |
| 20260903124541 | 46 | 67 | 0.0 | 1.0 | 0.00 | 0.39 | 0.00 | 98 | 1008.5 |
| 20260903123032 | 46 | 175 | 1.0 | 4.0 | 0.00 | 0.39 | 0.00 | 98 | 1008.6 |
| 20260903121528 | 47 | 110 | 0.0 | 2.0 | 0.00 | 0.39 | 0.00 | 98 | 1008.6 |
| 20260903120030 | 47 | 101 | 1.0 | 4.0 | 0.00 | 0.39 | 0.00 | 98 | 1008.6 |
| 20260903114531 | 48 | 188 | 0.0 | 5.0 | 0.00 | 0.39 | 0.00 | 98 | 1008.6 |
| 20260903113031 | 48 | 101 | 1.0 | 3.0 | 0.00 | 0.39 | 0.00 | 98 | 1008.5 |
| 20260903111607 | 48 | 153 | 2.0 | 3.0 | 0.00 | 0.39 | 0.00 | 98 | 1008.5 |
| 20260903110031 | 48 | 65 | 1.0 | 3.0 | 0.00 | 0.39 | 0.00 | 97 | 1008.4 |
| 20260903104531 | 48 | 22 | 0.0 | 0.0 | 0.00 | 0.39 | 0.00 | 97 | 1008.3 |
| 20260903103028 | 49 | 22 | 0.0 | 4.0 | 0.00 | 0.39 | 0.00 | 97 | 1008.1 |
| 20260903101530 | 49 | 38 | 2.0 | 4.0 | 0.00 | 0.39 | 0.00 | 97 | 1008.1 |
| 20260903093030 | 50 | 133 | 0.0 | 2.0 | 0.00 | 0.39 | 0.00 | 98 | 1008.1 |
| 20260903090031 | 49 | 233 | 0.0 | 2.0 | 0.00 | 0.39 | 0.00 | 97 | 1008.1 |
| 20260903084528 | 50 | 241 | 1.0 | 5.0 | 0.00 | 0.39 | 0.00 | 97 | 1008.1 |
| 20260903083031 | 50 | 90 | 1.0 | 4.0 | 0.00 | 0.39 | 0.00 | 97 | 1008.0 |
| 20260903081530 | 50 | 129 | 1.0 | 3.0 | 0.00 | 0.39 | 0.00 | 97 | 1007.9 |
| 20260903080030 | 49 | 101 | 0.0 | 4.0 | 0.00 | 0.39 | 0.00 | 97 | 1008.0 |
| 20260903074529 | 49 | 130 | 2.0 | 4.0 | 0.00 | 0.39 | 0.00 | 97 | 1007.8 |
| 20260903073144 | 49 | 155 | 2.0 | 4.0 | 0.00 | 0.39 | 0.00 | 97 | 1007.5 |
| 20260903071528 | 50 | 167 | 2.0 | 6.0 | 0.00 | 0.39 | 0.00 | 97 | 1007.5 |
| 20260903070029 | 51 | 114 | 1.0 | 4.0 | 0.00 | 0.39 | 0.00 | 97 | 1007.6 |
| 20260903064534 | 51 | 196 | 0.0 | 4.0 | 0.00 | 0.39 | 0.39 | 97 | 1007.6 |
| 20260903063028 | 50 | 199 | 0.0 | 2.0 | 0.00 | 0.39 | 0.39 | 97 | 1007.6 |
| 20260903060026 | 51 | 114 | 1.0 | 4.0 | 0.00 | 0.39 | 0.39 | 96 | 1007.7 |
| 20260903054609 | 51 | 290 | 0.0 | 4.0 | 0.00 | 0.39 | 0.39 | 96 | 1007.6 |
| 20260903053029 | 52 | 25 | 1.0 | 4.0 | 0.01 | 0.39 | 0.39 | 96 | 1007.5 |
| 20260903051603 | 52 | 163 | 1.0 | 6.0 | 0.01 | 0.39 | 0.39 | 96 | 1007.4 |
| 20260903050031 | 53 | 166 | 2.0 | 4.0 | 0.01 | 0.39 | 0.39 | 96 | 1007.3 |
| 20260903044530 | 54 | 124 | 1.0 | 4.0 | 0.01 | 0.39 | 0.38 | 96 | 1007.2 |
| 20260903043106 | 54 | 106 | 0.0 | 2.0 | 0.00 | 0.38 | 0.38 | 96 | 1007.1 |
| 20260903041529 | 54 | 113 | 0.0 | 3.0 | 0.00 | 0.38 | 0.38 | 96 | 1006.8 |
| 20260903040030 | 54 | 90 | 1.0 | 3.0 | 0.00 | 0.38 | 0.38 | 96 | 1006.5 |
| 20260903034646 | 54 | 32 | 0.0 | 3.0 | 0.00 | 0.38 | 0.38 | 95 | 1006.4 |
| 20260903033040 | 55 | 22 | 0.0 | 1.0 | 0.05 | 0.38 | 0.38 | 95 | 1006.3 |
| 20260903031614 | 55 | 23 | 1.0 | 4.0 | 0.09 | 0.38 | 0.38 | 95 | 1006.3 |
| 20260903030032 | 56 | 23 | 4.0 | 7.0 | 0.18 | 0.38 | 0.38 | 95 | 1006.0 |
| 20260903024532 | 57 | 360 | 2.0 | 5.0 | 0.22 | 0.38 | 0.33 | 95 | 1006.1 |
| 20260903021643 | 57 | 300 | 2.0 | 8.0 | 0.13 | 0.28 | 0.20 | 95 | 1005.9 |
| 20260903020031 | 58 | 280 | 1.0 | 4.0 | 0.05 | 0.20 | 0.16 | 94 | 1005.6 |
| 20260903014531 | 58 | 16 | 1.0 | 4.0 | 0.02 | 0.16 | 0.16 | 94 | 1005.4 |
| 20260903013037 | 58 | 310 | 0.0 | 3.0 | 0.03 | 0.16 | 0.16 | 94 | 1005.5 |
| 20260903011531 | 58 | 18 | 0.0 | 3.0 | 0.04 | 0.16 | 0.15 | 94 | 1005.4 |
| 20260903010110 | 58 | 13 | 1.0 | 4.0 | 0.04 | 0.15 | 0.14 | 93 | 1005.5 |
| 20260903004531 | 58 | 352 | 2.0 | 3.0 | 0.03 | 0.14 | 0.13 | 93 | 1005.6 |
| 20260903003033 | 58 | 337 | 2.0 | 3.0 | 0.03 | 0.13 | 0.12 | 93 | 1005.7 |
| 20260903001530 | 58 | 326 | 2.0 | 4.0 | 0.02 | 0.12 | 0.11 | 93 | 1005.6 |
| 20260903000031 | 58 | 306 | 2.0 | 5.0 | 0.01 | 0.11 | 0.11 | 92 | 1005.5 |
| 20260902234609 | 59 | 320 | 2.0 | 5.0 | 0.01 | 0.11 | 0.10 | 92 | 1005.5 |
| 20260902233031 | 60 | 322 | 3.0 | 6.0 | 0.00 | 0.10 | 0.10 | 92 | 1005.6 |
| 20260902230032 | 60 | 297 | 3.0 | 6.0 | 0.01 | 0.10 | 0.10 | 92 | 1005.8 |
| 20260902224608 | 59 | 307 | 3.0 | 6.0 | 0.02 | 0.10 | 0.10 | 92 | 1005.6 |
| 20260902223030 | 59 | 330 | 2.0 | 5.0 | 0.03 | 0.10 | 0.09 | 91 | 1005.7 |
| 20260902220029 | 59 | 290 | 0.0 | 3.0 | 0.04 | 0.09 | 0.08 | 91 | 1005.4 |
| 20260902214539 | 59 | 263 | 2.0 | 6.0 | 0.04 | 0.08 | 0.07 | 90 | 1005.3 |